Regional Weather Roundup
Issued by NWS

Home | Current Version | Previous Version | Graphics & Text | Print | Product List | Glossary Off
Versions: 1 2 3 4 5 6 7 8 9 10 11 12 13 14 15 16 17 18 19 20 21 22 23 24 25 26 27 28 29 30 31 32 33 34 35 36 37 38 39 40 41 42 43 44 45 46 47 48 49 50

000
ASUS43 KMKX 250600
RWRWI

WISCONSIN REGIONAL WEATHER ROUNDUP
NATIONAL WEATHER SERVICE MILWAUKEE/SULLIVAN WI
1200 AM CST THU DEC 25 2014

NOTE: "FAIR" INDICATES FEW OR NO CLOUDS BELOW 12,000 FEET WITH NO
SIGNIFICANT WEATHER AND/OR OBSTRUCTIONS TO VISIBILITY.

WIZ001-002-006>008-014>016-023>028-250700-
NORTHWEST WISCONSIN

CITY           SKY/WX    TMP DP  RH WIND       PRES   REMARKS
SUPERIOR ARPT  CLOUDY    33  30  89 SW8       29.52S WCI  26
ASHLAND        CLOUDY    33  31  92 SW7       29.52S WCI  27
6HR MIN TEMP:  32; 6HR MAX TEMP:  33;

HAYWARD        CLOUDY    32  27  81 SW9       29.53S WCI  24
6HR MIN TEMP:  32; 6HR MAX TEMP:  33;

SIREN          CLOUDY    32  29  89 SW9       29.56S WCI  24
CUMBERLAND     CLOUDY    32  28  86 SW10      29.55R WCI  24
RICE LAKE      CLOUDY    33  29  84 SW12      29.58R WCI  24
6HR MIN TEMP:  33; 6HR MAX TEMP:  33;

CHETEK         CLOUDY    33  29  86 CALM      29.57R
LADYSMITH      CLOUDY    33  30  90 W6        29.57R WCI  27
EAU CLAIRE     CLOUDY    33  29  85 SW9       29.58S WCI  25
MENOMONIE      CLOUDY    33  30  86 SW13G18   29.60R WCI  24
6HR MIN TEMP:  33; 6HR MAX TEMP:  35;

NEW RICHMOND   CLOUDY    32  30  93 SW9       29.59R WCI  24
OSCEOLA        CLOUDY    32  32  98 SW13      29.61R WCI  23
$$

WIZ003>005-009-010-017-018-250700-
NORTH CENTRAL WISCONSIN

CITY           SKY/WX    TMP DP  RH WIND       PRES   REMARKS
MANITOWISH WTR CLOUDY    29  29 100 W3        29.48S
ARBOR VITAE    CLOUDY    32  30  94 W6        29.49S WCI  26
WOODRUFF       CLOUDY    32  30  94 W6        29.49S WCI  26
RHINELANDER    CLOUDY    30  28  92 W8        29.50R WCI  22
6HR MIN TEMP:  29; 6HR MAX TEMP:  30;

EAGLE RIVER    CLOUDY    30  29  97 W9        29.47S WCI  22
LAND O LAKES   CLOUDY    31  30  96 W6        29.48R WCI  25
PHILLIPS       CLOUDY    30  29  95 W5        29.51S WCI  25
6HR MIN TEMP:  30; 6HR MAX TEMP:  31;

TOMAHAWK       CLOUDY    30  28  93 CALM      29.52R
MEDFORD        CLOUDY    30  28  91 W6        29.54R WCI  24
MERRILL        CLOUDY    31  30  94 W9        29.52S WCI  23
$$

WIZ029-030-035-036-043>047-250700-
CENTRAL WISCONSIN

CITY           SKY/WX    TMP DP  RH WIND       PRES   REMARKS
WAUSAU         MOCLDY    31  27  85 W9        29.53R WCI  23
6HR MIN TEMP:  30; 6HR MAX TEMP:  33;

MOSINEE        MOCLDY    30  30 100 W7        29.55S WCI  23
MARSHFIELD     CLOUDY    33  28  81 W10       29.56R WCI  25
6HR MIN TEMP:  33; 6HR MAX TEMP:  34; 6HR PCP: TRACE;

STEVENS POINT  CLOUDY    31  28  88 W5        29.56R WCI  27
WAUPACA        CLOUDY    36  32  87 W7        29.56R WCI  30
WAUTOMA        NOT AVBL
WISC RAPIDS    CLOUDY    33  27  78 W5        29.58S WCI  29
6HR MIN TEMP:  33; 6HR MAX TEMP:  34;

CAMP DOUGLAS   NOT AVBL
$$

WIZ011>013-019>022-031-037>040-048>050-250700-
NORTHEAST WISCONSIN

CITY           SKY/WX    TMP DP  RH WIND       PRES   REMARKS
ANTIGO         CLOUDY    30  28  94 W9        29.50R WCI  22
SHAWANO        CLOUDY    35  30  83 W8G16     29.53R WCI  29
6HR MIN TEMP:  34; 6HR MAX TEMP:  35;

OCONTO         CLOUDY    32  32  98 W9        29.50R WCI  25
STURGEON BAY   CLOUDY    34  28  80 W10       29.51R WCI  26
6HR MIN TEMP:  32; 6HR MAX TEMP:  34;

GREEN BAY      CLOUDY    34  31  88 W12       29.53R WCI  25
6HR MIN TEMP:  33; 6HR MAX TEMP:  34; 6HR PCP:  0.02;

MANITOWOC      CLOUDY    36  32  87 W12       29.53R WCI  27
APPLETON       CLOUDY    32  32 100 W12       29.54R WCI  23
CLINTONVILLE   MOCLDY    32  30  93 W7        29.54R WCI  26
OSHKOSH        CLOUDY    34  30  85 W9        29.56R WCI  27
6HR MIN TEMP:  34; 6HR MAX TEMP:  34; 6HR PCP: TRACE;

$$

WIZ032>034-041-042-053>061-250700-
SOUTHWEST WISCONSIN

CITY           SKY/WX    TMP DP  RH WIND       PRES   REMARKS
LA CROSSE      CLOUDY    35  29  78 W13       29.63S WCI  26
6HR MIN TEMP:  35; 6HR MAX TEMP:  37;

SPARTA         CLOUDY    33  30  86 W3        29.63R
VIROQUA        CLOUDY    32  32  99 W9        29.62R WCI  24
BOSCOBEL       CLOUDY    36  28  73 W10G17    29.67R WCI  28
6HR MIN TEMP:  36; 6HR MAX TEMP:  37;

PRAIRIE DU CHI CLOUDY    34  28  78 W8        29.68R WCI  28
PLATTEVILLE    CLOUDY    33  30  88 W6        29.67R WCI  28
$$

WIZ056-057-062-063-064-067-068-250700-
SOUTH CENTRAL WISCONSIN

CITY           SKY/WX    TMP DP  RH WIND       PRES   REMARKS
REEDSBURG      CLOUDY    33  30  88 W7        29.61R WCI  27
BARABOO/DELLS  CLOUDY    33  31  92 W8        29.60S WCI  26
LONE ROCK      NOT AVBL
MINERAL POINT  CLOUDY    34  30  86 W10G17    29.64R WCI  26
MADISON        CLOUDY    34  30  85 W8        29.61R WCI  27
6HR MIN TEMP:  34; 6HR MAX TEMP:  35;

MIDDLETON      CLOUDY    36  34  93 W12       29.62R WCI  27
WATERTOWN      CLOUDY    34  32  94 W10       29.59R WCI  26
MONROE         CLOUDY    32  32 100 W15       29.63R WCI  22
JANESVILLE     CLOUDY    36  32  87 W9        29.63R WCI  29
$$

WIZ051-052-058>065-066-070>072-250700-
SOUTHEAST WISCONSIN

CITY           SKY/WX    TMP DP  RH WIND       PRES   REMARKS
MILWAUKEE      CLOUDY    36  29  75 W12       29.59R WCI  28
6HR MIN TEMP:  36; 6HR MAX TEMP:  37; 6HR PCP: TRACE;

WAUKESHA       CLOUDY    32  30  93 W10       29.59R WCI  24
MILWAUKEE/TIMM CLOUDY    34  30  86 W12G18    29.58R WCI  25
RACINE         CLOUDY    36  30  79 W13G21    29.60R WCI  27
6HR MIN TEMP:  36; 6HR MAX TEMP:  37;

BURLINGTON     CLOUDY    33  31  92 W10       29.61R WCI  25
KENOSHA        CLOUDY    36  31  82 W13       29.60R WCI  27
6HR MIN TEMP:  36; 6HR MAX TEMP:  37;

FOND DU LAC    CLOUDY    34  30  85 W12       29.56R WCI  25
6HR MIN TEMP:  34; 6HR MAX TEMP:  35; 6HR PCP: TRACE;

SHEBOYGAN      CLOUDY    34  30  85 W13       29.54R WCI  25
6HR MIN TEMP:  33; 6HR MAX TEMP:  35; 6HR PCP:  0.01;

WEST BEND      CLOUDY    34  30  86 W13G20    29.56R WCI  25
JUNEAU         CLOUDY    33  31  93 W10       29.59R WCI  25
$$

LSZ147-162-250700-
LAKE SUPERIOR

STATION/POSITION TIME  TEMP    WIND        PRES    WAVE
                       AIR SEA DIR/SP/G            HT/PER
                 (UTC) (F)     (DEG/KT/KT) (MB)    (FT/S)
DEVILS ISLAND    0500   35     260/ 11/ 13  999.4F
PORT WING        0500   33     200/  3/  5  999.7F
SAXON HARBOR     0500   34      CALM  /  4 1000.0R
$$

LMZ867-665-643>646-250700-
LAKE MICHIGAN

STATION/POSITION TIME  TEMP    WIND        PRES    WAVE
                       AIR SEA DIR/SP/G            HT/PER
                 (UTC) (F)     (DEG/KT/KT) (MB)    (FT/S)
CHAMBERS ISLAND  0500   33     230/  6/ 11  998.0S
NORTHPORT PIER   0500   33     290/  8/ 13  997.0F
SISTER BAY       0413          310/ 13/ 15   N/A
ALGOMA LAKESHORE 0515          270/  8/ 11   N/A
KEWAUNEE LAKESHO 0500   34     280/  8/ 12  997.9R
SHEBOYGAN LAKESH 0500   35 37  270/ 11/ 14 1000.4R
PORT WASHINGTON  0540   36     280/  9/ 16 1001.7R
MILWAUKEE LAKESH 0500   36     290/ 14/ 19   N/A
KENOSHA   LAKESH 0500   37     280/ 12/ 17 1001.7R
$$

TC  - TEMPERATURE IN CELSIUS
VSB - VISIBILITY IN STATUTE MILES
WCI - WIND CHILL INDEX
HX  - HEAT INDEX




USA.gov is the U.S. government's official web portal to all federal, state and local government web resources and services.